Weather History for Buffalo, NY

Change the Weather History Date:

Thursday, June 27, 2013

  Actual Average Record
Temperature  
Mean Temperature 73 °F 69 °F  
Max Temperature 79 °F 78 °F 95 °F (2005)
Min Temperature 66 °F 60 °F 47 °F (1962)
Degree Days  
Heating Degree Days 0 1  
Month to date heating degree days 64 62  
Since 1 June heating degree days 64 62  
Since 1 July heating degree days 6096 6615  
Cooling Degree Days 8 5  
Month to date cooling degree days 84 87  
Year to date cooling degree days 155 113  
Since 1 June cooling degree days 84 87  
Growing Degree Days 22 (Base 50)    
Moisture  
Dew Point 66 °F    
Average Humidity 83    
Maximum Humidity 93    
Minimum Humidity 73    
Precipitation  
Precipitation 0.27 in 0.11 in 1.29 in (2006)
Month to date precipitation 6.26 3.34  
Year to date precipitation 20.36 18.35  
Snow  
Snow 0.00 in 0.00 in 0.00 in ()
Month to date snowfall 0.0 0.0  
Since 1 June snowfall 0.0 0.0  
Since 1 July snowfall 58.8 94.7  
Snow Depth 0.00 in    
Sea Level Pressure  
Sea Level Pressure 29.71 in    
Wind  
Wind Speed 4 mph (NE)    
Max Wind Speed 14 mph    
Max Gust Speed 16 mph    
Visibility 9 miles    
Events Rain , Thunderstorm    
T = Trace of Precipitation, MM = Missing Value Source: NWS Daily Summary

Daily Weather History Graph

Daily Weather History Graph

Search for Another Location

Airport:

Trip Planner

Search our weather history database for the weather conditions in past years. The results will help you decide how hot, cold, wet, or windy it might be!

Date:

Astronomy

Jun. 27, 2013 Rise Set
Actual Time 5:38 AM EDT 8:57 PM EDT
Civil Twilight 5:02 AM EDT 9:33 PM EDT
Nautical Twilight 4:17 AM EDT 10:18 PM EDT
Astronomical Twilight 3:20 AM EDT 11:15 PM EDT
Moon 11:45 PM EDT (6/27) 10:44 AM EDT (6/27)
Length of Visible Light 16h 30m
Length of Day
15h 19m
Waning Gibbous, 76% of the Moon is Illuminated
Jun 27
Waning Gibbous
Jun 30
Last Quarter
Jul 8
New
Jul 15
First Quarter
Jul 22
Full

Hourly Weather History & Observations

Time (EDT) Temp. Dew Point Humidity Pressure Visibility Wind Dir Wind Speed Gust Speed Precip Events Conditions
12:54 AM 72.0 °F 63.0 °F 73% 29.80 in 10.0 mi Calm Calm - N/A   Mostly Cloudy
1:54 AM 70.0 °F 63.0 °F 78% 29.78 in 10.0 mi SSE 4.6 mph - N/A   Scattered Clouds
2:54 AM 66.9 °F 63.0 °F 87% 29.78 in 10.0 mi South 5.8 mph - N/A   Partly Cloudy
3:54 AM 68.0 °F 64.0 °F 87% 29.77 in 10.0 mi ESE 3.5 mph - N/A   Scattered Clouds
4:54 AM 66.9 °F 64.0 °F 90% 29.77 in 10.0 mi SSE 3.5 mph - N/A   Scattered Clouds
5:54 AM 68.0 °F 64.0 °F 87% 29.77 in 10.0 mi SE 4.6 mph - N/A   Mostly Cloudy
6:54 AM 69.1 °F 64.9 °F 87% 29.76 in 10.0 mi SSE 4.6 mph - N/A   Overcast
7:54 AM 72.0 °F 66.0 °F 81% 29.75 in 10.0 mi SE 3.5 mph - N/A   Overcast
8:54 AM 75.0 °F 66.9 °F 76% 29.74 in 10.0 mi East 3.5 mph - N/A   Overcast
9:54 AM 75.9 °F 68.0 °F 76% 29.74 in 10.0 mi SSE 3.5 mph - N/A   Overcast
10:54 AM 77.0 °F 69.1 °F 76% 29.73 in 9.0 mi ESE 3.5 mph - N/A   Overcast
11:54 AM 79.0 °F 69.1 °F 72% 29.73 in 10.0 mi Calm Calm - N/A   Overcast
12:54 PM 79.0 °F 69.1 °F 72% 29.72 in 10.0 mi Calm Calm - N/A   Overcast
1:26 PM 78.8 °F 68.0 °F 69% 29.73 in 10.0 mi Variable 6.9 mph - 0.00 in Rain Light Rain
1:45 PM 71.6 °F 66.2 °F 83% 29.72 in 6.0 mi East 10.4 mph - 0.05 in Rain , Thunderstorm Thunderstorms and Rain
1:54 PM 72.0 °F 66.0 °F 81% 29.71 in 8.0 mi East 5.8 mph - 0.05 in Rain , Thunderstorm Light Thunderstorms and Rain
2:00 PM 71.6 °F 64.4 °F 78% 29.72 in 10.0 mi NNE 4.6 mph - 0.00 in Rain , Thunderstorm Light Thunderstorms and Rain
2:54 PM 68.0 °F 64.9 °F 90% 29.71 in 7.0 mi NNW 8.1 mph - 0.02 in Rain Light Rain
3:54 PM 71.1 °F 68.0 °F 90% 29.69 in 9.0 mi Calm Calm - 0.04 in Rain Light Rain
4:36 PM 71.6 °F 69.8 °F 94% 29.69 in 8.0 mi NNW 4.6 mph - 0.00 in Rain Light Rain
4:54 PM 71.1 °F 68.0 °F 90% 29.68 in 10.0 mi NNW 5.8 mph - 0.00 in Rain Light Rain
5:54 PM 71.1 °F 66.9 °F 87% 29.68 in 10.0 mi NNW 5.8 mph - 0.00 in   Overcast
6:13 PM 69.8 °F 66.2 °F 88% 29.69 in 6.0 mi North 5.8 mph - 0.01 in Rain , Thunderstorm Thunderstorms and Rain
6:38 PM 68.0 °F 64.4 °F 88% 29.68 in 2.5 mi NW 6.9 mph - 0.07 in Rain , Thunderstorm Heavy Thunderstorms and Rain
6:43 PM 68.0 °F 64.4 °F 88% 29.68 in 4.0 mi NW 4.6 mph - 0.09 in Rain , Thunderstorm Thunderstorms and Rain
6:54 PM 66.9 °F 64.0 °F 90% 29.68 in 8.0 mi NW 5.8 mph - 0.11 in Rain , Thunderstorm Light Thunderstorms and Rain
7:32 PM 68.0 °F 64.4 °F 88% 29.67 in 10.0 mi North 6.9 mph - 0.01 in   Mostly Cloudy
7:54 PM 68.0 °F 64.9 °F 90% 29.66 in 10.0 mi NNW 5.8 mph - 0.01 in   Mostly Cloudy
8:54 PM 68.0 °F 64.0 °F 87% 29.66 in 10.0 mi NW 4.6 mph - N/A   Overcast
9:54 PM 68.0 °F 64.9 °F 90% 29.67 in 10.0 mi NE 4.6 mph - 0.00 in Rain Light Rain
10:12 PM 66.2 °F 64.4 °F 94% 29.68 in 10.0 mi NE 3.5 mph - 0.00 in   Overcast
10:37 PM 66.2 °F 64.4 °F 94% 29.67 in 10.0 mi ENE 3.5 mph - 0.00 in Rain Light Rain
10:54 PM 66.0 °F 64.0 °F 93% 29.65 in 4.0 mi NNE 3.5 mph - 0.01 in Rain Rain
11:54 PM 66.0 °F 64.9 °F 96% 29.64 in 10.0 mi Calm Calm - 0.03 in Rain Light Rain